User: anonymous   Login
Location: Unspecified
(0.0000°N, 0.0000°E)
Time: 01:31:47
(UTC+00:00)
Language:

Uribyol 2 - Orbit

View from above orbital plane
View from above orbital plane
View from above satellite
View from above satellite

Ground track
Ground track

The orbit data is extracted from the following two-line orbital elements,

1 22828U 93061F   17117.86626758 +.00000031 +00000-0 +29352-4 0  9995
2 22828 098.7924 081.7182 0011008 078.5697 281.6721 14.30631388198510
Epoch (UTC): 27 April 2017 20:47:25
Eccentricity: 0.0011008
inclination: 98.7924°
perigee height: 782 km
apogee height: 797 km
right ascension of ascending node: 81.7182°
argument of perigee: 78.5697°
revolutions per day: 14.30631388
mean anomaly at epoch: 281.6721°
orbit number at epoch: 19851

The dashed part of the orbit path shows where the satellite is in the earth's shadow,  

DLR